Regional Weather Roundup
Issued by NWS

Home | Current Version | Previous Version | Text Only | Print | Product List | Glossary On
Versions: 1 2 3 4 5 6 7 8 9 10 11 12 13 14 15 16 17 18 19 20 21 22 23 24 25 26 27 28 29 30 31 32 33 34 35 36 37 38 39 40 41 42 43 44 45 46 47 48 49 50
000
ASUS43 KLSX 221807
RWRMO

WEATHER SUMMARY FOR MISSOURI
NATIONAL WEATHER SERVICE SPRINGFIELD MO
100 PM CDT FRI AUG 22 2014

NOTE: "FAIR" INDICATES FEW OR NO CLOUDS BELOW 12,000 FEET WITH NO
       SIGNIFICANT WEATHER AND/OR OBSTRUCTIONS TO VISIBILITY.
       CURRENT SKY AND/OR WEATHER CONDITIONS ARE NOT AVAILABLE FOR
       CHILLICOTHE AND FARMINGTON.

MOZ001>031-035>038-043-044-053-054-221900-
...NORTHERN AND WESTERN MISSOURI...

CITY           SKY/WX    TMP DP  RH WIND       PRES   REMARKS
KANSAS CTY INT CLOUDY    87  74  64 S10       29.94F HX  95
6HR MIN TEMP:  77; 6HR MAX TEMP:  87;

KANSAS C DTWN  CLOUDY    91  72  53 S6        29.92F HX  98
6HR MIN TEMP:  80; 6HR MAX TEMP:  91;

LEE`S SUMMIT   MOSUNNY   87  72  60 S8        29.96F HX  93
6HR MIN TEMP:  76; 6HR MAX TEMP:  88;

ST JOSEPH      CLOUDY    81  75  82 S5        29.92S
6HR MIN TEMP:  75; 6HR MAX TEMP:  81; 6HR PCP:  0.04;

CHILLICOTHE      N/A     86  76  71 S6        29.94F HX  96
6HR MIN TEMP:  76; 6HR MAX TEMP:  86;

KIRKSVILLE     PTSUNNY   83  75  77 CALM      29.98F HX  90
6HR MIN TEMP:  74; 6HR MAX TEMP:  84; 6HR PCP:  0.06;


$$
MOZ066>068-077>081-088>096-101>105-221900-
...SOUTHWEST MISSOURI...

CITY           SKY/WX    TMP DP  RH WIND       PRES   REMARKS
SPRINGFIELD    SUNNY     94  68  42 SW8       30.01F HX  98
6HR MIN TEMP:  74; 6HR MAX TEMP:  95;

JOPLIN         SUNNY     95  70  44 S17G24    29.99F HX 101
6HR MIN TEMP:  78; 6HR MAX TEMP:  95;


$$
MOZ032>034-039>042-045>050-055>058-069>072-221900-
...CENTRAL MISSOURI...

CITY           SKY/WX    TMP DP  RH WIND       PRES   REMARKS
COLUMBIA       MOSUNNY   91  74  57 SW7       29.98F HX 100
6HR MIN TEMP:  74; 6HR MAX TEMP:  91;

JEFFERSON CITY MOSUNNY   89  73  59 S7        29.97F HX  97
6HR MIN TEMP:  74; 6HR MAX TEMP:  91;

ROLLA          MOSUNNY   92  71  50 MISG      30.00F HX  98
6HR MIN TEMP:  73; 6HR MAX TEMP:  92;

SEDALIA        MOSUNNY   90  74  59 S8        29.98F HX  99
6HR MIN TEMP:  77; 6HR MAX TEMP:  91;

WHITEMAN AFB   MOSUNNY   89  68  49 VRB3      29.97S HX  92
OSAGE BEACH    MOSUNNY   93  72  49 SW6       29.98F HX 100

$$
MOZ051-052-059>065-221900-
...EAST CENTRAL MISSOURI...

CITY           SKY/WX    TMP DP  RH WIND       PRES   REMARKS
ST LOUIS INTL  PTSUNNY   91  73  55 SW5       30.01F HX  99
6HR MIN TEMP:  80; 6HR MAX TEMP:  91; 6HR PCP: TRACE;

SPIRIT OF STL  PTSUNNY   89  73  59 S6        29.99F HX  97
6HR MIN TEMP:  74; 6HR MAX TEMP:  89;

ST CHARLES     PTSUNNY   88  73  61 CALM      29.99F HX  95
6HR MIN TEMP:  72; 6HR MAX TEMP:  89;


$$
MOZ072>076-082>087-097>100-106>115-221900-
...SOUTH CENTRAL AND SOUTHEAST MISSOURI...

CITY           SKY/WX    TMP DP  RH WIND       PRES   REMARKS
CAPE GIRARDEAU PTSUNNY   90  77  65 W8        30.03F HX 103
6HR MIN TEMP:  72; 6HR MAX TEMP:  90;

FARMINGTON     PTSUNNY   91  72  52 SE3       30.05F HX  98
6HR MIN TEMP:  73; 6HR MAX TEMP:  91;

POPLAR BLUFF   PTSUNNY   90  75  61 S7        30.02S HX 100
6HR MIN TEMP:  73; 6HR MAX TEMP:  91;

WEST PLAINS    SUNNY     91  71  51 SW6       30.06F HX  97
6HR MIN TEMP:  73; 6HR MAX TEMP:  91;


$$



USA.gov is the U.S. government's official web portal to all federal, state and local government web resources and services.